Radiation Dose measured at exhaust stack monitor of Miscellaneous Solid Waste Incinerator Building/Incinerator raregas monitor
Date,Time,Incinerator Gas Monitor(cps),Wind Direction,Wind Velocity(m/s)
2021/10/02,00:00,1.5,northwest,13.8
2021/10/02,00:10,1.6,north-northwest,12.7
2021/10/02,00:20,1.5,north-northwest,10.7
2021/10/02,00:30,1.5,north-northwest,13.8
2021/10/02,00:40,1.5,north-northwest,12.4
2021/10/02,00:50,1.5,north-northwest,13.3
2021/10/02,01:00,1.5,north-northwest,13.8
2021/10/02,01:10,1.5,north-northwest,13.3
2021/10/02,01:20,1.5,north-northwest,11.6
2021/10/02,01:30,1.5,north-northwest,11.3
2021/10/02,01:40,1.4,northwest,10.2
2021/10/02,01:50,1.4,north-northwest,9.3
2021/10/02,02:00,1.5,northwest,9.2
2021/10/02,02:10,1.4,northwest,8.5
2021/10/02,02:20,1.5,northwest,10.7
2021/10/02,02:30,1.5,northwest,8.9
2021/10/02,02:40,1.5,northwest,9.4
2021/10/02,02:50,1.5,northwest,9.6
2021/10/02,03:00,1.4,northwest,9.3
2021/10/02,03:10,1.5,northwest,10.2
2021/10/02,03:20,1.5,northwest,10.4
2021/10/02,03:30,1.4,northwest,10.5
2021/10/02,03:40,1.6,northwest,10.0
2021/10/02,03:50,1.5,northwest,8.2
2021/10/02,04:00,1.5,northwest,8.1
2021/10/02,04:10,1.6,northwest,5.8
2021/10/02,04:20,1.5,northwest,6.2
2021/10/02,04:30,1.6,northwest,6.7
2021/10/02,04:40,1.5,northwest,5.2
2021/10/02,04:50,1.5,northwest,4.3
2021/10/02,05:00,1.5,northwest,6.2
2021/10/02,05:10,1.4,northwest,5.9
2021/10/02,05:20,1.5,northwest,3.7
2021/10/02,05:30,1.5,north-northwest,3.5
2021/10/02,05:40,1.5,north-northwest,4.4
2021/10/02,05:50,1.5,north-northwest,5.2
2021/10/02,06:00,1.4,north-northwest,6.2
2021/10/02,06:10,1.5,north-northwest,4.6
2021/10/02,06:20,1.5,north-northwest,3.8
2021/10/02,06:30,1.5,north-northwest,4.5
2021/10/02,06:40,1.5,north,4.1
2021/10/02,06:50,1.5,north,4.3
2021/10/02,07:00,1.5,north-northwest,4.2
2021/10/02,07:10,1.5,north-northwest,4.1
2021/10/02,07:20,1.5,north-northwest,3.6
2021/10/02,07:30,1.5,west,1.7
2021/10/02,07:40,1.5,west-northwest,2.0
2021/10/02,07:50,1.4,northwest,1.5
2021/10/02,08:00,1.5,-,CALM
2021/10/02,08:10,1.5,southeast,1.1
2021/10/02,08:20,1.4,southeast,2.5
2021/10/02,08:30,1.4,south-southeast,2.5
2021/10/02,08:40,1.5,southeast,3.7
2021/10/02,08:50,1.4,southeast,3.4
2021/10/02,09:00,1.5,east-southeast,3.0
2021/10/02,09:10,1.5,south-southeast,2.6
2021/10/02,09:20,1.4,southeast,2.2
2021/10/02,09:30,1.5,southeast,2.3
2021/10/02,09:40,1.5,east-southeast,1.7
2021/10/02,09:50,1.5,east,0.8
2021/10/02,10:00,1.5,north-northeast,1.2
2021/10/02,10:10,1.5,north,3.1
2021/10/02,10:20,1.4,north-northwest,4.8
2021/10/02,10:30,1.4,north-northwest,4.8
2021/10/02,10:40,1.4,north,2.9
2021/10/02,10:50,1.4,north-northeast,2.8
2021/10/02,11:00,1.5,east-northeast,2.5
2021/10/02,11:10,1.4,east,1.4
2021/10/02,11:20,1.5,east,1.9
2021/10/02,11:30,1.5,north-northwest,1.4
2021/10/02,11:40,1.4,northwest,5.9
2021/10/02,11:50,1.5,north-northwest,5.5
2021/10/02,12:00,1.5,north,2.3
2021/10/02,12:10,1.6,north-northeast,2.0
2021/10/02,12:20,1.5,northwest,6.7
2021/10/02,12:30,1.6,northwest,5.7
2021/10/02,12:40,1.5,west-northwest,8.8
2021/10/02,12:50,1.5,west-northwest,9.6
2021/10/02,13:00,1.5,northwest,7.1
2021/10/02,13:10,1.5,northwest,6.8
2021/10/02,13:20,1.4,west-northwest,5.9
2021/10/02,13:30,1.5,northwest,5.3
2021/10/02,13:40,1.4,northwest,5.0
2021/10/02,13:50,1.5,northwest,4.6
2021/10/02,14:00,1.4,west-northwest,4.8
2021/10/02,14:10,1.5,west-northwest,3.8
2021/10/02,14:20,1.5,west,4.3
2021/10/02,14:30,1.5,west,4.1
2021/10/02,14:40,1.5,west-northwest,3.8
2021/10/02,14:50,1.5,west,3.5
2021/10/02,15:00,1.4,west-northwest,4.3
2021/10/02,15:10,1.6,west-northwest,3.7
2021/10/02,15:20,1.5,west-northwest,3.8
2021/10/02,15:30,1.4,west,4.2
2021/10/02,15:40,1.6,west-southwest,3.6
2021/10/02,15:50,1.5,west,3.9
2021/10/02,16:00,1.5,west,3.7
2021/10/02,16:10,1.5,west-northwest,3.5
2021/10/02,16:20,1.5,northwest,3.4
2021/10/02,16:30,1.5,northwest,3.1
2021/10/02,16:40,1.5,west-northwest,3.1
2021/10/02,16:50,1.4,west-northwest,1.7
2021/10/02,17:00,1.5,west-northwest,2.5
2021/10/02,17:10,1.4,west,3.8
2021/10/02,17:20,1.5,west,3.9
2021/10/02,17:30,1.5,west,3.6
2021/10/02,17:40,1.5,west,3.3
2021/10/02,17:50,1.4,west,5.2
2021/10/02,18:00,1.4,west,6.1
2021/10/02,18:10,1.5,west-northwest,4.6
2021/10/02,18:20,1.4,northwest,4.4
2021/10/02,18:30,1.4,northwest,3.7
2021/10/02,18:40,1.4,northwest,3.3
2021/10/02,18:50,1.5,north-northwest,3.0
2021/10/02,19:00,1.6,north-northwest,3.4
2021/10/02,19:10,1.5,northwest,4.8
2021/10/02,19:20,1.5,northwest,3.6
2021/10/02,19:30,1.5,west-northwest,2.8
2021/10/02,19:40,1.5,west-northwest,5.3
2021/10/02,19:50,1.5,northwest,5.2
2021/10/02,20:00,1.4,northwest,4.5
2021/10/02,20:10,1.4,northwest,3.3
2021/10/02,20:20,1.5,northwest,4.6
2021/10/02,20:30,1.4,northwest,3.3
2021/10/02,20:40,1.5,west-northwest,3.6
2021/10/02,20:50,1.5,west-northwest,4.2
2021/10/02,21:00,1.5,west-northwest,3.8
2021/10/02,21:10,1.4,west,5.3
2021/10/02,21:20,1.5,west,4.8
2021/10/02,21:30,1.5,west,3.2
2021/10/02,21:40,1.4,west-southwest,2.3
2021/10/02,21:50,1.5,southwest,2.0
2021/10/02,22:00,1.4,southwest,1.2
2021/10/02,22:10,1.5,south,1.5
2021/10/02,22:20,1.4,south,1.1
2021/10/02,22:30,1.5,south,0.9
2021/10/02,22:40,1.4,east-northeast,0.6
2021/10/02,22:50,1.5,west-northwest,1.2
2021/10/02,23:00,1.4,west,3.7
2021/10/02,23:10,1.5,west-northwest,2.0
2021/10/02,23:20,1.5,west-northwest,1.1
2021/10/02,23:30,1.5,northwest,2.6
2021/10/02,23:40,1.5,west-northwest,6.6
2021/10/02,23:50,1.5,northwest,4.9
